This is the latest recevied weather packets stored in our database for station/object OK1VCF-8. If no packets are shown the sender has not sent any weather packets the latest 10 day(s).
| Time | Temp. | Humidity | Pressure | Rain* | Wind** | Luminosity | Snow |
|---|---|---|---|---|---|---|---|
| 1777500217 | 3.89° C | 46% | 1031.7 hPa | - | - | - | - |
| 1777499777 | 4.44° C | 45% | 1031.6 hPa | - | - | - | - |
| 1777499341 | 4.44° C | 45% | 1031.6 hPa | - | - | - | - |
| 1777498903 | 4.44° C | 45% | 1031.6 hPa | - | - | - | - |
| 1777498466 | 4.44° C | 44% | 1031.6 hPa | - | - | - | - |
| 1777498028 | 4.44° C | 44% | 1031.5 hPa | - | - | - | - |
| 1777497588 | 4.44° C | 43% | 1031.5 hPa | - | - | - | - |
| 1777497152 | 5° C | 43% | 1031.4 hPa | - | - | - | - |
| 1777496714 | 5° C | 42% | 1031.3 hPa | - | - | - | - |
| 1777496277 | 5.56° C | 42% | 1031.4 hPa | - | - | - | - |
| 1777495840 | 5.56° C | 41% | 1031.2 hPa | - | - | - | - |
| 1777495236 | 5.56° C | 40% | 1031.2 hPa | - | - | - | - |
| 1777493936 | 5.56° C | 39% | 1031 hPa | - | - | - | - |
| 1777493499 | 6.11° C | 38% | 1031 hPa | - | - | - | - |
| 1777493062 | 6.11° C | 38% | 1030.9 hPa | - | - | - | - |
| 1777492622 | 6.67° C | 38% | 1030.8 hPa | - | - | - | - |
| 1777491326 | 6.67° C | 37% | 1030.4 hPa | - | - | - | - |
| 1777490888 | 6.67° C | 36% | 1030.4 hPa | - | - | - | - |
| 1777490449 | 6.67° C | 36% | 1030.3 hPa | - | - | - | - |
| 1777490012 | 7.22° C | 36% | 1030.3 hPa | - | - | - | - |
| 1777489574 | 7.78° C | 35% | 1030.2 hPa | - | - | - | - |
| 1777489136 | 7.78° C | 35% | 1030.1 hPa | - | - | - | - |
| 1777488534 | 7.78° C | 34% | 1029.8 hPa | - | - | - | - |
| 1777488097 | 7.78° C | 34% | 1029.6 hPa | - | - | - | - |
| 1777487659 | 7.78° C | 32% | 1029.6 hPa | - | - | - | - |
* Rain since midnight (hover to see other rain measurements)
** Current wind speed in m/s (hover to see current wind gust speed)